Vorticity
nan nan nan nan nan nan nan nan nan nan nan nan nan nan nan nan nan nan nan nan nan nan nan nan nan nan nan nan nan nan nan nan nan nan nan nan nan nan nan nan nan nan nan nan nan nan nan nan nan
nan 6 12 9 8 7 5 7 3 9 -1 -5 -1 12 10 16 21 15 14 10 8 2 6 7 7 7 8 6 6 5 6 5 6 7 6 6 6 7 7 7 7 7 7 8 7 8 6 6 nan
nan 9 9 5 7 10 16 7 1 -1 6 17 9 8 5 6 5 7 5 1 10 6 12 8 8 6 6 6 5 5 6 5 6 6 7 7 6 6 6 7 6 7 8 8 7 7 6 5 nan
nan 11 6 4 8 14 10 10 6 2 -0 15 10 8 11 10 7 9 7 8 -1 5 6 8 7 6 5 6 7 5 6 5 5 6 7 7 6 6 5 6 7 7 7 6 6 6 6 5 nan
nan 8 7 11 18 4 8 9 6 5 7 7 3 8 6 9 8 6 6 8 -1 9 6 7 6 7 6 5 6 6 6 6 6 6 6 6 6 5 6 6 7 8 7 6 6 6 5 4 nan
nan 5 7 8 20 6 0 3 9 9 15 4 3 3 6 7 3 2 6 -3 7 6 7 6 6 7 7 6 6 6 5 6 6 7 6 6 6 6 5 5 7 8 6 5 6 6 5 4 nan
nan 6 2 8 5 6 6 10 2 -11 9 23 4 4 5 6 2 2 -0 6 13 0 4 7 6 5 5 4 6 6 5 5 6 5 5 5 5 5 5 4 5 6 6 5 5 5 5 4 nan
nan 4 8 11 2 -3 2 0 6 16 10 2 6 3 7 7 5 6 10 5 2 8 11 4 6 6 5 6 5 5 6 5 6 5 4 3 3 3 3 4 4 5 4 4 6 5 4 4 nan
nan 8 7 8 -0 -1 9 16 13 6 3 10 18 12 8 5 4 2 4 14 3 5 -1 10 6 4 5 10 5 6 5 3 2 3 5 -0 3 5 3 3 6 4 4 3 4 5 4 4 nan
nan 7 5 15 8 5 -3 1 12 19 3 8 23 16 6 4 5 8 -4 2 5 6 3 6 3 9 5 4 5 4 4 3 5 7 6 3 6 8 7 5 4 4 3 6 5 4 4 3 nan
nan 10 20 8 5 4 6 6 11 6 7 1 7 3 5 1 4 4 5 14 8 7 8 12 13 2 8 3 4 5 5 5 7 8 10 10 5 6 4 4 5 8 7 7 8 6 7 9 nan
nan 16 21 10 8 3 8 2 13 6 7 14 16 7 5 7 5 -1 19 7 5 5 7 11 9 7 9 6 6 8 6 8 6 6 9 5 8 7 8 10 7 6 8 8 7 9 8 10 nan
nan -2 12 13 2 3 15 11 2 6 13 24 8 6 2 5 13 5 11 7 9 10 7 -1 8 4 1 9 10 6 4 8 8 5 4 8 9 10 6 6 7 12 11 6 10 7 7 5 nan
nan 5 20 6 5 9 -2 7 1 -6 16 15 8 3 11 5 1 15 6 8 7 4 6 7 10 6 6 -1 10 5 11 12 6 10 5 4 6 7 11 8 6 5 8 10 10 6 8 8 nan
nan 7 3 5 9 8 -7 1 4 -6 7 12 16 11 3 -1 10 14 7 6 6 7 6 3 7 7 6 8 4 6 12 6 8 7 9 10 3 7 7 7 9 5 8 9 4 8 9 10 nan
nan 7 7 10 -2 6 2 4 0 2 2 12 8 11 9 14 10 3 7 5 9 6 7 11 7 8 1 11 6 7 8 9 8 5 7 7 6 8 5 7 8 9 8 6 6 8 9 9 nan
nan 2 3 5 9 13 7 5 12 8 1 6 8 13 -5 5 7 13 9 6 5 8 6 15 11 7 8 6 6 10 7 7 8 9 7 5 10 5 7 10 10 11 9 8 11 10 10 7 nan
nan 9 13 15 21 5 4 9 18 7 4 4 9 6 10 5 3 10 5 11 9 7 7 6 9 10 9 5 5 10 8 6 7 9 10 8 6 7 11 7 8 10 11 6 10 10 9 9 nan
nan 7 8 4 13 5 9 14 14 10 3 4 6 5 7 10 14 3 17 8 7 1 4 8 8 10 8 5 7 7 8 7 8 10 5 4 7 15 8 5 5 8 3 6 11 7 6 8 nan
nan 5 15 10 2 4 12 12 14 10 5 4 4 2 1 10 14 10 3 9 8 7 5 5 5 3 4 6 9 8 8 9 9 7 12 9 2 6 6 9 11 11 6 8 4 10 12 11 nan
nan 12 9 7 4 8 9 16 14 8 9 7 4 4 -0 10 7 6 8 10 5 5 6 8 8 5 6 5 6 8 9 8 9 9 8 5 12 7 6 8 11 6 7 12 8 12 10 13 nan
nan 12 10 5 1 12 7 10 18 11 9 9 5 5 4 2 5 8 10 11 7 8 6 7 6 4 4 9 11 8 7 7 8 7 10 10 9 7 7 7 7 8 7 9 7 5 6 9 nan
nan 3 3 1 9 21 4 4 20 15 8 8 9 7 6 8 8 3 12 4 13 10 6 7 7 6 6 6 9 8 7 11 7 10 9 8 9 8 8 8 9 5 5 8 7 6 9 5 nan
nan 7 8 5 8 10 9 15 19 9 10 13 11 8 8 6 6 9 3 8 15 13 9 8 7 6 8 7 6 6 5 7 7 16 7 8 9 7 10 9 9 5 10 6 9 7 4 8 nan
nan 5 8 12 12 -2 5 25 14 13 12 10 14 13 10 8 11 10 4 13 4 6 10 10 8 8 7 6 7 6 6 5 14 9 7 9 9 10 11 8 7 7 7 6 8 7 9 7 nan
nan 7 0 5 6 6 8 21 14 10 15 17 17 11 8 4 2 9 14 10 10 12 7 8 7 7 8 8 7 7 8 1 9 8 9 7 6 17 17 7 6 8 8 7 8 9 9 8 nan
nan 10 4 9 6 2 13 7 2 14 18 22 16 9 5 9 13 13 13 8 6 8 9 9 9 7 8 5 7 8 7 9 7 8 7 10 10 11 8 11 7 9 9 9 8 5 7 9 nan
nan 4 22 17 15 6 7 7 3 -5 7 22 20 8 11 11 6 9 11 13 16 1 10 15 9 8 7 7 6 7 6 7 7 9 8 4 10 11 7 5 9 11 9 9 8 7 10 10 nan
nan 8 4 11 19 15 11 7 6 4 9 11 25 22 11 11 8 9 -1 6 16 15 11 6 9 8 7 9 8 7 9 7 6 7 8 7 7 7 10 5 8 9 9 9 9 6 7 10 nan
nan nan nan nan nan nan nan nan nan nan nan nan nan nan nan nan nan nan nan nan nan nan nan nan nan nan nan nan nan nan nan nan nan nan nan nan nan nan nan nan nan nan nan nan nan nan nan nan nan
CAPE
0 4 581 1037 1106 1171 89 45 86 77 60 96 316 308 496 352 208 356 50 585 663 711 924 1176 2124 1694 1450 1156 1446 1872 1502 1666 1657 1660 1788 1852 1829 1805 1740 1570 1475 1560 1681 1703 1696 1728 1821 1779 1602
0 90 690 841 635 48 20 94 108 125 161 218 619 409 398 328 450 402 569 874 625 718 624 906 2303 2366 1906 1622 2143 1859 1882 1795 1729 1847 1850 1942 1847 1871 1661 1576 1590 1506 1546 1665 1710 1732 2029 2031 1928
28 357 769 20 286 137 125 55 74 294 241 427 571 500 225 285 257 352 1072 775 684 802 777 1664 2350 2340 2179 1974 2224 2241 1720 1848 1805 1849 1904 1948 1786 1785 1919 1854 1883 1888 2139 1963 2008 2083 2224 2033 1833
262 594 655 152 197 63 61 94 75 21 418 474 124 208 496 344 318 752 967 715 0 562 1111 2051 2573 2188 2044 2177 2551 2021 1982 1935 2007 1920 2087 2076 2266 1829 1922 1917 1933 1764 1941 1911 1984 2088 1956 1515 1499
260 531 161 128 238 56 66 61 265 151 122 157 162 189 533 336 379 786 1068 1132 831 862 1228 1849 2616 2799 2274 2018 1996 2488 2053 1877 2441 2311 2656 2069 1891 1698 1455 1405 1600 1784 2080 2062 2233 2078 1731 1598 1507
674 401 164 106 109 45 66 242 287 187 84 240 154 259 411 325 297 587 763 608 620 886 1099 1563 2542 2701 1953 1950 1935 2608 2269 2373 2536 2689 2477 2280 2154 1624 2048 1899 2130 2201 2060 1755 1568 1875 1618 1409 988
399 468 72 108 482 253 133 253 176 161 118 136 266 234 238 306 146 401 443 239 722 652 800 1260 1050 1907 1852 2426 2759 2271 2155 2407 2340 2299 2548 2582 2125 2190 2463 2774 2233 2104 2036 2031 2126 1572 1330 1467 1408
684 202 76 49 564 571 336 194 278 105 117 187 67 114 243 217 235 319 538 385 491 337 523 1017 1269 905 1338 1840 2132 1647 1935 1879 2003 2043 1944 2497 1887 1945 2005 2468 2345 2008 1956 1945 2021 2051 1470 1093 788
93 165 67 19 218 230 574 354 274 173 31 117 181 73 207 187 179 194 282 277 560 376 538 283 1012 1251 1761 2147 1778 1731 1880 1918 2413 2135 2100 2067 1201 1751 1746 2147 1853 1652 1759 1832 1853 2026 1945 1601 1243
202 0 37 17 70 38 372 131 122 138 85 110 194 172 102 155 230 91 389 325 533 831 128 7 52 995 1387 713 2243 2335 1783 1746 1958 1943 2081 1850 1839 2218 1161 1694 1675 1540 1546 1658 1911 2005 2171 2116 961
479 373 365 172 47 9 39 18 153 153 153 72 183 87 124 130 260 146 208 451 529 395 395 0 94 781 1132 1829 1713 1945 1914 1731 1953 1491 2056 2079 926 1049 1072 1694 1430 1629 1929 1570 2001 2119 1770 1511 2120
464 536 561 43 2 31 263 277 320 203 105 114 94 81 97 159 298 356 154 471 664 650 784 628 687 429 1728 1943 1407 1529 1632 1486 1434 1740 2242 2757 1705 1359 832 1467 1791 2237 1957 2144 2379 1549 1814 1601 1851
566 539 488 160 67 27 267 220 255 153 148 91 69 62 80 154 161 286 317 423 567 574 633 795 73 0 2175 2406 1461 1058 1629 1163 1134 1596 1715 2440 2338 2448 2042 2371 1360 2241 1404 2168 1581 2688 1658 1687 1187
398 417 450 366 438 82 367 119 179 321 334 62 48 55 64 184 233 236 461 574 406 845 800 1032 512 904 1614 1476 188 595 1008 922 1012 1387 1384 2404 1159 2339 2461 2475 1170 1077 2888 1203 2197 1689 2240 2033 1047
334 485 453 485 535 388 51 28 89 144 171 301 39 48 203 252 151 366 410 509 349 733 704 872 941 768 1467 833 227 182 1185 844 976 1826 2493 1575 1787 1258 3447 441 2372 2831 3056 2477 2383 2604 1794 1091 811
41 177 356 513 637 351 77 23 20 68 37 297 83 203 284 218 195 353 384 379 638 502 629 854 466 728 1556 1959 1929 1318 1237 1660 1515 1660 2188 2351 1386 3151 1321 1689 1292 1507 2672 3018 2649 2057 1984 799 943
21 39 148 2 187 546 161 137 0 37 33 171 194 146 143 347 397 173 386 374 244 426 1087 1203 1100 817 1389 2196 1950 2280 2094 2659 2056 1386 1934 2736 2544 2866 3774 1931 3388 3495 3338 1585 2644 2395 2178 1421 1117
10 18 57 0 597 768 579 353 1 2 4 76 201 189 108 201 193 449 511 256 391 1024 1325 1369 1145 1181 1966 1935 2762 2138 1730 1403 2577 2408 1592 3075 2959 2671 2055 2021 3375 359 1357 2152 2122 4237 3304 2342 1475
18 22 86 624 494 624 486 523 495 2 0 27 69 207 55 225 174 313 348 194 384 976 804 1203 931 1553 1669 1797 1786 1702 1282 2378 2454 2250 3315 697 613 2514 2435 2988 551 0 0 97 3578 2569 2717 3020 2007
49 18 62 298 323 284 295 395 623 223 0 0 3 50 177 78 77 326 372 186 393 1137 1198 1611 1709 2309 1526 2275 2074 1621 1696 1174 2425 2833 2690 1010 643 2599 2625 2891 1010 18 0 180 3421 4200 3812 2775 1964
79 31 85 73 28 82 45 320 699 388 107 4 2 4 43 160 198 420 447 470 618 1253 1758 1806 1989 1754 1834 2241 2100 2788 2744 3092 2129 2400 2371 1924 2357 2607 3088 2769 2837 1398 334 14 2606 3116 838 1099 2697
14 73 88 101 10 18 222 205 949 709 430 84 49 0 7 102 106 35 231 435 771 1289 1458 2032 1936 2239 2025 2210 1589 2099 2193 1859 1640 2263 2206 2596 2511 2453 2855 3115 2666 206 86 1 663 1621 0 0 1325
15 9 11 35 37 46 74 136 601 587 517 380 218 0 11 31 170 116 132 546 477 1252 1289 1857 1953 2256 1862 2682 1880 2325 2139 1867 1666 1895 3013 2014 3257 2929 2358 3035 2366 2067 84 11 317 3243 2746 2455 1674
21 65 73 119 114 34 46 96 825 834 414 458 400 167 8 4 95 268 242 246 205 406 1211 1821 1915 1950 2549 2395 2048 2408 2488 2149 1758 1718 2362 2180 2271 2371 2923 3027 3044 2857 3003 2860 2926 3529 3335 4218 4094
2 7 27 55 34 87 251 290 709 399 288 434 641 321 12 55 93 22 147 116 521 135 464 1766 1977 1842 2112 2060 2152 2373 2732 383 2237 2219 2031 1372 1382 1292 2494 3302 3614 3363 3443 2892 3730 3469 3431 3165 3481
11 6 15 185 132 72 46 413 483 466 378 403 470 97 29 65 94 87 111 502 673 492 573 1090 2002 1890 1720 2017 2290 2551 2542 2164 801 2520 2756 1571 1555 1021 2629 2752 3230 3030 3198 2946 3106 3195 3050 3074 3218
0 0 0 0 31 10 42 234 37 119 101 79 437 182 152 141 168 285 360 744 664 513 860 1276 2001 2035 1781 1488 2120 2165 2472 2388 1961 2019 3066 2087 3026 2527 2371 2567 2628 3142 2903 2464 3204 2690 2984 2953 3239
0 0 62 19 89 90 202 7 23 0 2 251 596 225 420 656 235 255 188 343 539 310 219 1564 1678 1856 1701 1507 1440 1361 1782 2317 2834 2551 1906 1787 2437 2198 1075 1713 1425 2916 2710 2352 2721 2434 2664 2783 2682
20 1 325 172 188 252 364 1 0 0 0 239 343 530 664 381 501 667 141 194 46 719 693 1318 1333 1701 1536 1273 1458 1556 1840 1970 2228 2309 968 680 2856 2534 2835 1591 781 2554 2194 2932 2718 2781 2677 2249 2319
25 5 192 167 155 423 237 71 8 0 0 449 510 755 432 512 824 988 456 331 223 1119 1263 1027 1440 1612 1315 1195 1734 1522 1747 1661 1920 2100 2466 2673 2858 2522 2346 2431 2113 2162 2535 2711 2927 2354 1911 1750 1978